• In Netherlands
  • List of Countries
  • For 7 days
  • Water Temperature
  • Satellite Maps
  • Weather Map
  • Weather Widgets
  • user-avatar
    Login

    Hourly Weather Kiustendil

    Today, 21 July, Friday

    Time Temperature Precipitation Wind Pressure Humidity
    00:00 +11°C° 0 mm 1 mps 626 mmHg 57%
    01:00 +11°C° 0 mm 1 mps 626 mmHg 60%
    02:00 +11°C° 0 mm 1 mps 625 mmHg 61%
    03:00 +10°C° 0 mm 1 mps 625 mmHg 61%
    04:00 +10°C° 0 mm 1 mps 625 mmHg 62%
    05:00 +12°C° 0 mm 1 mps 626 mmHg 56%
    06:00 +15°C° 0 mm 1 mps 627 mmHg 49%
    07:00 +16°C° 0 mm 0 mps 629 mmHg 43%
    08:00 +20°C° 0 mm 1 mps 629 mmHg 38%
    09:00 +22°C° 0 mm 1 mps 630 mmHg 34%
    10:00 +24°C° 0 mm 2 mps 630 mmHg 29%
    11:00 +25°C° 0 mm 2 mps 630 mmHg 27%
    12:00 +26°C° 0 mm 2 mps 631 mmHg 25%
    13:00 +27°C° 0 mm 3 mps 631 mmHg 23%
    14:00 +27°C° 0 mm 3 mps 631 mmHg 23%
    15:00 +27°C° 0 mm 3 mps 630 mmHg 23%
    16:00 +26°C° 0 mm 3 mps 630 mmHg 23%
    17:00 +24°C° 0 mm 3 mps 629 mmHg 30%
    18:00 +20°C° 0 mm 2 mps 629 mmHg 36%
    19:00 +17°C° 0 mm 2 mps 628 mmHg 42%
    20:00 +16°C° 0 mm 2 mps 628 mmHg 46%
    21:00 +15°C° 0 mm 1 mps 627 mmHg 49%
    22:00 +13°C° 0 mm 1 mps 627 mmHg 52%
    23:00 +13°C° 0 mm 1 mps 627 mmHg 54%

    Tomorrow, 22 July, Saturday

    Time Temperature Precipitation Wind Pressure Humidity
    00:00 +12°C° 0 mm 1 mps 627 mmHg 55%
    01:00 +12°C° 0 mm 1 mps 627 mmHg 57%
    02:00 +12°C° 0 mm 1 mps 627 mmHg 57%
    03:00 +11°C° 0 mm 1 mps 627 mmHg 58%
    04:00 +11°C° 0 mm 1 mps 627 mmHg 58%
    05:00 +14°C° 0 mm 1 mps 628 mmHg 52%
    06:00 +15°C° 0 mm 0 mps 629 mmHg 46%
    07:00 +18°C° 0 mm 0 mps 630 mmHg 40%
    08:00 +22°C° 0 mm 1 mps 630 mmHg 36%
    09:00 +24°C° 0 mm 1 mps 631 mmHg 31%
    10:00 +26°C° 0 mm 1 mps 632 mmHg 27%
    11:00 +27°C° 0 mm 1 mps 632 mmHg 25%
    12:00 +28°C° 0 mm 2 mps 632 mmHg 23%
    13:00 +29°C° 0 mm 2 mps 632 mmHg 21%
    14:00 +29°C° 0 mm 2 mps 632 mmHg 22%
    15:00 +29°C° 0 mm 2 mps 631 mmHg 22%
    16:00 +29°C° 0 mm 2 mps 631 mmHg 22%
    17:00 +26°C° 0 mm 2 mps 630 mmHg 28%
    18:00 +23°C° 0 mm 1 mps 629 mmHg 33%
    19:00 +20°C° 0 mm 1 mps 629 mmHg 39%
    20:00 +19°C° 0 mm 1 mps 628 mmHg 44%
    21:00 +18°C° 0 mm 1 mps 628 mmHg 49%
    22:00 +15°C° 0 mm 1 mps 628 mmHg 54%
    23:00 +15°C° 0 mm 1 mps 628 mmHg 55%

    Day after tomorrow, 23 July, Sunday

    Time Temperature Precipitation Wind Pressure Humidity
    00:00 +14°C° 0 mm 1 mps 627 mmHg 57%
    01:00 +14°C° 0 mm 1 mps 627 mmHg 59%
    02:00 +13°C° 0 mm 1 mps 627 mmHg 60%
    03:00 +13°C° 0 mm 1 mps 627 mmHg 61%
    04:00 +13°C° 0 mm 1 mps 626 mmHg 62%
    05:00 +15°C° 0 mm 1 mps 627 mmHg 55%
    06:00 +19°C° 0 mm 1 mps 628 mmHg 49%
    07:00 +19°C° 0 mm 0 mps 629 mmHg 42%
    08:00 +23°C° 0 mm 1 mps 630 mmHg 37%
    09:00 +25°C° 0 mm 1 mps 630 mmHg 32%
    10:00 +27°C° 0 mm 1 mps 631 mmHg 27%
    11:00 +28°C° 0 mm 1 mps 631 mmHg 26%
    12:00 +29°C° 0 mm 1 mps 631 mmHg 24%
    13:00 +30°C° 0 mm 1 mps 631 mmHg 22%
    14:00 +29°C° 0 mm 1 mps 630 mmHg 24%
    15:00 +28°C° 0 mm 1 mps 630 mmHg 25%
    16:00 +28°C° 0 mm 2 mps 629 mmHg 27%
    17:00 +26°C° 0 mm 2 mps 629 mmHg 31%
    18:00 +24°C° 0 mm 2 mps 628 mmHg 35%
    19:00 +21°C° 0 mm 2 mps 628 mmHg 39%
    20:00 +19°C° 0 mm 2 mps 628 mmHg 43%
    21:00 +19°C° 0 mm 1 mps 627 mmHg 47%
    22:00 +18°C° 0 mm 1 mps 627 mmHg 51%
    23:00 +16°C° 0 mm 1 mps 627 mmHg 53%

    24 July, Monday

    Time Temperature Precipitation Wind Pressure Humidity
    00:00 +15°C° 0 mm 1 mps 626 mmHg 55%
    01:00 +15°C° 0 mm 1 mps 626 mmHg 58%
    02:00 +14°C° 0 mm 1 mps 625 mmHg 59%
    03:00 +14°C° 0 mm 1 mps 625 mmHg 60%
    04:00 +13°C° 0 mm 1 mps 625 mmHg 61%
    05:00 +16°C° 0 mm 1 mps 626 mmHg 54%
    06:00 +17°C° 0 mm 0 mps 627 mmHg 48%
    07:00 +20°C° 0 mm 0 mps 627 mmHg 42%
    08:00 +24°C° 0 mm 1 mps 628 mmHg 37%
    09:00 +26°C° 0 mm 1 mps 628 mmHg 33%
    10:00 +28°C° 0 mm 1 mps 629 mmHg 28%
    11:00 +28°C° 0 mm 2 mps 628 mmHg 27%
    12:00 +29°C° 0 mm 2 mps 628 mmHg 25%
    13:00 +30°C° 0 mm 2 mps 628 mmHg 24%
    14:00 +29°C° 0 mm 2 mps 628 mmHg 24%
    15:00 +29°C° 0 mm 2 mps 627 mmHg 25%
    16:00 +29°C° 0 mm 2 mps 627 mmHg 26%
    17:00 +26°C° 0 mm 2 mps 626 mmHg 32%
    18:00 +24°C° 0 mm 3 mps 625 mmHg 38%
    19:00 +20°C° 0 mm 3 mps 624 mmHg 44%
    20:00 +19°C° 0 mm 2 mps 623 mmHg 52%
    21:00 +17°C° 0 mm 2 mps 623 mmHg 59%
    22:00 +16°C° 0 mm 2 mps 622 mmHg 66%
    23:00 +15°C° 0 mm 2 mps 622 mmHg 69%

    25 July, Tuesday

    Time Temperature Precipitation Wind Pressure Humidity
    00:00 +14°C° 0 mm 2 mps 621 mmHg 71%
    01:00 +14°C° 0 mm 2 mps 621 mmHg 74%
    02:00 +13°C° 0 mm 2 mps 621 mmHg 75%
    03:00 +13°C° 0 mm 1 mps 620 mmHg 76%
    04:00 +12°C° 0 mm 1 mps 620 mmHg 77%
    05:00 +15°C° 0 mm 2 mps 621 mmHg 68%
    06:00 +17°C° 0 mm 2 mps 622 mmHg 59%
    07:00 +19°C° 0 mm 2 mps 623 mmHg 50%
    08:00 +21°C° 0 mm 3 mps 623 mmHg 44%
    09:00 +24°C° 0 mm 3 mps 624 mmHg 37%
    10:00 +26°C° 0 mm 4 mps 624 mmHg 31%
    11:00 +27°C° 0 mm 3 mps 624 mmHg 28%
    12:00 +28°C° 0 mm 3 mps 624 mmHg 25%
    13:00 +29°C° 0 mm 3 mps 624 mmHg 22%
    14:00 +28°C° 0 mm 3 mps 624 mmHg 23%
    15:00 +28°C° 0 mm 3 mps 624 mmHg 25%
    16:00 +27°C° 0 mm 3 mps 624 mmHg 26%
    17:00 +25°C° 0.1 mm 3 mps 623 mmHg 35%
    18:00 +21°C° 0.1 mm 3 mps 622 mmHg 44%
    19:00 +18°C° 0.1 mm 2 mps 622 mmHg 53%
    20:00 +17°C° 0.1 mm 2 mps 621 mmHg 60%
    21:00 +15°C° 0.1 mm 2 mps 621 mmHg 67%
    22:00 +14°C° 0.1 mm 1 mps 621 mmHg 74%
    23:00 +13°C° 0 mm 1 mps 621 mmHg 77%

    26 July, Wednesday

    Time Temperature Precipitation Wind Pressure Humidity
    00:00 +12°C° 0 mm 1 mps 620 mmHg 80%
    01:00 +12°C° 0 mm 1 mps 620 mmHg 83%
    02:00 +12°C° 0 mm 1 mps 620 mmHg 84%
    03:00 +11°C° 0 mm 1 mps 620 mmHg 86%
    04:00 +11°C° 0 mm 1 mps 620 mmHg 87%
    05:00 +13°C° 0 mm 1 mps 621 mmHg 79%
    06:00 +15°C° 0 mm 2 mps 622 mmHg 72%
    07:00 +17°C° 0 mm 2 mps 623 mmHg 64%
    08:00 +19°C° 0 mm 2 mps 623 mmHg 55%
    09:00 +21°C° 0 mm 2 mps 624 mmHg 47%
    10:00 +24°C° 0 mm 2 mps 625 mmHg 39%
    11:00 +25°C° 0.1 mm 2 mps 625 mmHg 36%
    12:00 +25°C° 0.1 mm 2 mps 625 mmHg 33%
    13:00 +26°C° 0.1 mm 2 mps 625 mmHg 31%
    14:00 +25°C° 0.1 mm 2 mps 625 mmHg 33%
    15:00 +24°C° 0.1 mm 3 mps 624 mmHg 35%
    16:00 +24°C° 0.1 mm 3 mps 624 mmHg 38%
    17:00 +21°C° 0 mm 3 mps 624 mmHg 44%
    18:00 +19°C° 0 mm 3 mps 623 mmHg 50%
    19:00 +17°C° 0 mm 3 mps 623 mmHg 56%
    20:00 +14°C° 0 mm 3 mps 623 mmHg 61%
    21:00 +13°C° 0 mm 3 mps 622 mmHg 66%
    22:00 +11°C° 0 mm 3 mps 622 mmHg 71%
    23:00 +10°C° 0 mm 2 mps 622 mmHg 72%
    Show more